ONEWEB-0136 (47282 NORAD) Tracking and Keplerian Element Data
This shows tracking and keplerian element data for the satellite.
Feedback or suggestion? Click here.
Element | Value |
Catalog | 47282 |
Name | ONEWEB-0136 |
Epoch Orbit | 174 |
Epoch Day | 60.91667824 |
Epoch Year | 2021 |
RAAN | 16.1632 |
Inclination | 87.5985 |
Eccentricity | 0.000972 |
Argument of Perigee | 29.3479 |
Mean Anonmoly | 143.9752 |
Mean Motion | 13.96615664 |
Decay Rate | -0.00023141 |
L1 | 1 47282U 20100AA 21060.91667824 -.00023141 00000-0 -16785-1 0 9999 |
L2 | 2 47282 87.5985 16.1632 0009720 29.3479 143.9752 13.96615664 1748 |
Live tracking and technical data element details for ONEWEB-0136 (NORAD 47282). ONEWEB-0136 can be tracked NOW for your location showing map with azimuth and elevation plus other details from your city location.
Track the satellite on the map from your city or location and see movement details for azimuth, elevation, latitude, longitude, range, height, and movement on the map or in text.
IsCatalogInMostPopularTable: catalog: 47282, numindb: 21
Update: records affected: 1
GetName: 47282 ONEWEB-0136
Hit Count: updated at: Tue, 02 Mar 2021 14:09:39 GMT